Home   Weather   Dillenburg   Past weeks

Flag for Germany Past Weather in Dillenburg, Hesse, Germany — Yesterday and Last 2 Weeks

45 °F


Feels Like: 43 °F
Forecast: 35 / 53 °F
Wind: 3 mph from Northwest

Location: Hessen

Current Time: Oct 26, 2016 at 7:24:47 PM

Latest Report: Oct 26, 2016 at 6:50 PM

Visibility: N/A

Pressure: 30.36 "Hg

Humidity: 93%

Dew Point: 43 °F

Location of DillenburgLocation

Past Weather in Dillenburg — Graph


Dillenburg Temperature Yesterday

Maximum temperature yesterday: 48 °F (at 7:50 AM)
Minimum temperature yesterday: 45 °F (at 2:20 PM)
Average temperature yesterday: 46 °F

High & Low Weather Summary for the Past Weeks

High59 °F (Oct 16, 2:50 PM)100% (Oct 12, 7:50 AM)30.36 "Hg (Oct 12, 7:50 AM)
Low37 °F (Oct 13, 7:50 AM)59% (Oct 16, 3:50 PM)29.68 "Hg (Oct 14, 7:50 PM)
Average44 °F95%30.00 "Hg
* Reported Oct 11 5:20 PM — Oct 26 5:50 PM, Dillenburg, Weather by CustomWeather, © 2016

Note: Actual official high and low records may vary slightly from our data, if they occured in-between our weather recording intervals... More about our weather records


Dillenburg Weather History for the Previous 24 Hours

Scroll right to see more
Time TempWeatherWind HumidityBarometerVisibility
5:50 PM
Wed, Oct 26
45 °FPartly sunny.3 mph93%30.36 "HgN/A
5:20 PM45 °FPartly sunny.5 mph93%30.36 "HgN/A
4:50 PM46 °FOvercast.6 mph87%30.36 "HgN/A
4:20 PM46 °FPartly sunny.6 mph82%30.36 "HgN/A
3:50 PM46 °FPartly sunny.5 mph82%30.33 "HgN/A
3:20 PM46 °FPartly sunny.5 mph82%30.36 "HgN/A
2:50 PM46 °FPartly sunny.6 mph82%30.36 "HgN/A
2:20 PM46 °FBroken clouds.3 mph82%30.36 "HgN/A
1:50 PM45 °FBroken clouds.5 mph87%30.36 "HgN/A
1:20 PM45 °FBroken clouds.6 mph87%30.36 "HgN/A
12:50 PM45 °FBroken clouds.7 mph87%30.36 "HgN/A
12:20 PM45 °FBroken clouds.5 mph81%30.36 "HgN/A
11:50 AM43 °FBroken clouds.2 mph87%30.36 "HgN/A
11:20 AM43 °FBroken clouds.3 mph93%30.36 "Hg5 mi
10:50 AM43 °FBroken clouds.3 mph93%30.36 "Hg4 mi
10:20 AM43 °FFog.3 mph93%30.33 "Hg3 mi
9:50 AM41 °FDrizzle. Broken clouds.2 mph100%30.33 "Hg3 mi
9:20 AM41 °FFog.No wind100%30.33 "Hg3 mi
8:50 AM41 °FDrizzle. Broken clouds.2 mph100%30.33 "Hg4 mi
8:20 AM41 °FDrizzle. Broken clouds.5 mph100%30.33 "Hg4 mi
7:50 AM43 °FPartly cloudy.3 mph93%30.33 "Hg4 mi
8:50 PM
Tue, Oct 25
45 °FPassing clouds.6 mph100%30.27 "Hg5 mi
8:20 PM45 °FPassing clouds.5 mph100%30.27 "Hg6 mi
7:50 PM45 °FPartly cloudy.3 mph100%30.27 "Hg4 mi
7:20 PM45 °FPartly cloudy.6 mph100%30.24 "Hg4 mi
Weather by CustomWeather, © 2016

See weather overviewHow to use our weather pages